[[{"header":{"parameterUnit":"m.s-1","parameterCategory":1,"la1":30.2991,"la2":30.254,"lo1":-89.0895,"lo2":-89.0444,"dy":0.0017,"dx":0.0017,"nx":28,"ny":28,"refTime":"2024-02-11T09:00:00:Z","depth":0,"parameterNumber":2,"parameterNumberName":"U-component_of_WINDS"},"data":[0,0,0,0,0,0,0,0,0,0,0,0,0,0,0,0,0,0,0,0,0,0,0,0,0,0,0,0,0,0,0,0,0,0,0,0,0,0,0,0,0,0,0,0,0,0,0,0,0,0,0,0,0,0,0,0,0,0,-1.2712,-1.2713,0,-1.2852,-1.2854,-1.2855,-1.2931,-1.2931,-1.2932,-1.2932,-1.3072,-1.3076,-1.3079,0,0,0,0,0,0,0,0,0,0,0,0,0,-1.2505,-1.2509,-1.2712,-1.2713,-1.2715,-1.2852,-1.2854,-1.2856,-1.2931,-1.2931,-1.2932,-1.2932,-1.3071,-1.3075,-1.308,0,0,0,0,0,0,0,0,0,0,0,0,0,-1.2615,-1.251,-1.2711,-1.2769,-1.2776,-1.2851,-1.2854,-1.2856,-1.2931,-1.2931,-1.2932,-1.2932,-1.307,-1.3075,-1.308,-1.3108,0,0,-1.3096,-1.3099,0,0,0,0,0,0,0,0,-1.2609,-1.2623,-1.2759,-1.2765,-1.2773,-1.2874,-1.2833,-1.294,-1.2931,-1.2872,-1.2932,-1.2932,-1.3006,-1.3017,-1.3042,-1.3114,-1.312,-1.3097,-1.31,-1.3102,-1.3104,0,0,0,0,0,0,0,-1.2601,-1.2617,-1.2767,-1.2761,-1.2769,-1.2787,-1.2803,-1.2853,-1.2936,-1.2877,-1.2883,-1.2899,-1.301,-1.3037,-1.3046,-1.3122,-1.3097,-1.3102,-1.3105,-1.3107,-1.3222,-1.3222,0,0,0,0,0,0,-1.2585,-1.261,-1.2763,-1.2771,-1.269,-1.2791,-1.2808,-1.2842,-1.2935,-1.295,-1.2898,-1.2902,-1.3028,-1.304,-1.3051,-1.3089,-1.3102,-1.3107,-1.3111,-1.3222,-1.3222,-1.3222,0,0,0,0,0,0,-1.258,-1.2598,-1.2757,-1.2692,-1.2714,-1.2794,-1.283,-1.2844,-1.2871,-1.2951,-1.2966,-1.2911,-1.3028,-1.3044,-1.3093,-1.3095,-1.311,-1.3115,-1.3223,-1.3222,-1.3222,-1.3165,0,0,0,0,0,0,-1.2574,-1.2595,-1.2608,-1.2692,-1.2717,-1.2797,-1.2831,-1.2847,-1.2881,-1.2887,-1.2967,-1.2981,-1.303,-1.3085,-1.3098,-1.3103,-1.3119,-1.3223,-1.3223,-1.3222,-1.3167,-1.3162,-1.3159,0,0,0,0,0,-1.2566,-1.2585,-1.2608,-1.2626,-1.2734,-1.2797,-1.2812,-1.2868,-1.2881,-1.2893,-1.2944,-1.2978,-1.3092,-1.3089,-1.3105,-1.3111,-1.3223,-1.3223,-1.3222,-1.3168,-1.3163,-1.3159,0,0,0,0,0,0,-1.2499,-1.2598,-1.2624,-1.2671,-1.2725,-1.281,-1.2828,-1.2861,-1.2912,-1.2915,-1.2982,-1.3,-1.3042,-1.3082,-1.3076,-1.3142,-1.3161,-1.3164,-1.3115,-1.311,-1.3106,-1.3096,-1.3123,0,0,0,0,0,-1.2489,-1.2533,-1.2617,-1.2651,-1.2677,-1.2747,-1.2777,-1.2816,-1.2874,-1.2897,-1.2952,-1.3006,-1.3054,-1.3085,-1.3133,-1.3173,-1.319,-1.3184,-1.318,-1.3177,-1.3178,-1.3201,-1.3199,-1.3221,-1.3221,-1.3221,0,0,-1.2471,-1.253,-1.2554,-1.2639,-1.2685,-1.2728,-1.2766,-1.281,-1.2842,-1.2903,-1.2953,-1.2995,-1.306,-1.3104,-1.3126,-1.3138,-1.3176,-1.3176,-1.3173,-1.3177,-1.32,-1.3198,-1.3196,-1.3221,-1.3221,-1.3221,0,0,-1.2458,-1.2508,-1.2541,-1.2587,-1.2657,-1.2703,-1.2711,-1.2791,-1.2821,-1.2872,-1.2919,-1.2957,-1.3039,-1.3083,-1.3116,-1.3119,-1.3151,-1.3132,-1.3112,-1.3133,-1.3131,-1.313,-1.313,-1.3129,-1.3134,-1.3134,-1.3134,0,-1.2426,-1.2493,-1.2554,-1.2595,-1.263,-1.2688,-1.2721,-1.2763,-1.2844,-1.2867,-1.2879,-1.2982,-1.303,-1.3085,-1.3085,-1.311,-1.312,-1.3124,-1.3127,-1.3126,-1.3126,-1.3126,-1.3126,-1.3131,-1.3131,-1.3131,-1.3132,0,-1.2449,-1.2495,-1.2513,-1.2591,-1.2628,-1.2665,-1.273,-1.276,-1.2795,-1.284,-1.289,-1.295,-1.3011,-1.3027,-1.3062,-1.3086,-1.3091,-1.3114,-1.3135,-1.312,-1.3121,-1.3122,-1.3127,-1.3128,-1.3129,-1.3129,0,0,-1.2399,-1.2509,-1.2515,-1.255,-1.2631,-1.2667,-1.2705,-1.2766,-1.279,-1.2844,-1.2878,-1.2945,-1.2966,-1.3004,-1.3043,-1.3062,-1.3059,-1.3083,-1.3085,-1.3075,-1.3088,-1.3069,-1.3069,-1.3081,-1.3081,-1.3081,-1.3082,0,-1.2398,-1.2471,-1.2526,-1.2577,-1.2619,-1.2674,-1.2708,-1.276,-1.2802,-1.2843,-1.289,-1.2936,-1.2961,-1.2984,-1.3005,-1.3054,-1.3062,-1.3055,-1.3111,-1.3112,-1.3093,-1.307,-1.3051,-1.3049,-1.3083,-1.3083,-1.3083,0,-1.2406,-1.2459,-1.2514,-1.2589,-1.2609,-1.2638,-1.2697,-1.2736,-1.2796,-1.2825,-1.2866,-1.2907,-1.2949,-1.2966,-1.3023,-1.3018,-1.3044,-1.3071,-1.3072,-1.3079,-1.3097,-1.3076,-1.305,-1.3049,-1.3085,-1.3085,-1.3085,0,-1.2363,-1.2447,-1.2491,-1.252,-1.2609,-1.2628,-1.2666,-1.2726,-1.2758,-1.2809,-1.2831,-1.2886,-1.2916,-1.2957,-1.3011,-1.3018,-1.3062,-1.3084,-1.3087,-1.3085,-1.3093,-1.3092,-1.307,-1.3111,-1.3111,-1.3111,-1.3111,0,-1.2356,-1.2387,-1.2473,-1.25,-1.2536,-1.2598,-1.2633,-1.2675,-1.2728,-1.2763,-1.2813,-1.2845,-1.2915,-1.2955,-1.2997,-1.3038,-1.3051,-1.3075,-1.3086,-1.307,-1.3067,-1.3088,-1.3089,-1.3111,-1.3111,-1.3111,-1.3111,0,-1.2314,-1.2372,-1.2424,-1.2503,-1.2524,-1.2547,-1.2615,-1.2642,-1.2687,-1.2731,-1.2745,-1.2814,-1.2864,-1.2922,-1.299,-1.3019,-1.3055,-1.3071,-1.3035,-1.3041,-1.304,-1.3039,-1.3031,-1.3032,-1.3071,-1.3071,-1.3071,0,-1.2305,-1.2331,-1.2413,-1.244,-1.2476,-1.252,-1.2553,-1.2614,-1.2647,-1.2716,-1.2734,-1.2788,-1.2834,-1.2909,-1.2965,-1.3017,-1.3035,-1.3029,-1.3043,-1.3026,-1.3034,-1.3031,-1.3034,-1.3024,-1.3024,-1.3023,-1.3023,0,-1.2283,-1.231,-1.2356,-1.2412,-1.245,-1.2497,-1.2546,-1.2566,-1.2637,-1.267,-1.2721,-1.2757,-1.2826,-1.2878,-1.2936,-1.2974,-1.3009,-1.3017,-1.3021,-1.3005,-1.2982,-1.2993,-1.3023,-1.3017,-1.3018,-1.3018,-1.3019,-1.3019,-1.2257,-1.2281,-1.2343,-1.2392,-1.2435,-1.2479,-1.2509,-1.2557,-1.2601,-1.2662,-1.2696,-1.2746,-1.2803,-1.2886,-1.2922,-1.2962,-1.2974,-1.2979,-1.298,-1.298,-1.2975,-1.2976,-1.2973,-1.2973,-1.2973,-1.2973,-1.2973,0,-1.2236,-1.2278,-1.2323,-1.239,-1.2428,-1.2458,-1.2514,-1.2543,-1.2587,-1.2638,-1.2682,-1.274,-1.279,-1.2849,-1.2903,-1.2923,-1.294,-1.2935,-1.2933,-1.2941,-1.2961,-1.2953,-1.292,-1.292,-1.292,-1.292,-1.292,-1.292,-1.223,-1.2273,-1.2307,-1.2372,-1.2414,-1.2463,-1.2492,-1.2532,-1.2573,-1.2636,-1.2678,-1.2716,-1.2771,-1.2828,-1.2875,-1.2891,-1.2908,-1.2897,-1.2918,-1.2935,-1.294,-1.2944,-1.2937,-1.2901,-1.2901,-1.2895,-1.2895,-1.2895]},{"header":{"parameterUnit":"m.s-1","parameterCategory":1,"la1":30.2991,"la2":30.254,"lo1":-89.0895,"lo2":-89.0444,"dy":0.0017,"dx":0.0017,"nx":28,"ny":28,"refTime":"2024-02-11T09:00:00:Z","depth":0,"parameterNumber":3,"parameterNumberName":"V-component_of_WINDS"},"data":[0,0,0,0,0,0,0,0,0,0,0,0,0,0,0,0,0,0,0,0,0,0,0,0,0,0,0,0,0,0,0,0,0,0,0,0,0,0,0,0,0,0,0,0,0,0,0,0,0,0,0,0,0,0,0,0,0,0,5.1627,5.163,0,5.1905,5.1908,5.1911,5.1987,5.1985,5.1984,5.1982,5.2266,5.2274,5.2283,0,0,0,0,0,0,0,0,0,0,0,0,0,5.1164,5.1172,5.1627,5.1631,5.1634,5.1904,5.1908,5.1912,5.1987,5.1985,5.1983,5.1982,5.2263,5.2273,5.2284,0,0,0,0,0,0,0,0,0,0,0,0,0,5.1395,5.1175,5.1627,5.1704,5.1714,5.1903,5.1908,5.1913,5.1988,5.1985,5.1983,5.1981,5.2259,5.2272,5.2286,5.2417,0,0,5.2327,5.2333,0,0,0,0,0,0,0,0,5.1382,5.1412,5.1689,5.1699,5.1711,5.1909,5.1849,5.2082,5.1988,5.1884,5.1982,5.1979,5.2149,5.2171,5.2229,5.243,5.2443,5.2328,5.2337,5.2342,5.2346,0,0,0,0,0,0,0,5.1366,5.1401,5.1737,5.1693,5.1706,5.1726,5.1756,5.1893,5.2026,5.1893,5.1899,5.1931,5.2154,5.2215,5.2236,5.2447,5.2328,5.234,5.2348,5.2354,5.2773,5.2776,0,0,0,0,0,0,5.1337,5.1387,5.1728,5.1745,5.1537,5.1736,5.177,5.1848,5.2025,5.205,5.1932,5.1933,5.2193,5.222,5.2246,5.2415,5.2342,5.2355,5.2363,5.277,5.2774,5.2777,0,0,0,0,0,0,5.1326,5.1366,5.1717,5.1568,5.1614,5.1746,5.1833,5.1854,5.1916,5.2055,5.2079,5.1971,5.2192,5.2227,5.2375,5.2425,5.2361,5.2373,5.2767,5.2772,5.2776,5.2751,0,0,0,0,0,0,5.1313,5.1362,5.1413,5.1569,5.1622,5.1841,5.1836,5.1861,5.1939,5.1942,5.2097,5.2121,5.2193,5.2354,5.2388,5.2443,5.2384,5.2763,5.2769,5.2774,5.2748,5.2754,5.2759,0,0,0,0,0,5.1296,5.1395,5.1416,5.1456,5.1689,5.1844,5.1874,5.1956,5.1942,5.1996,5.2085,5.2116,5.2413,5.2369,5.2408,5.2467,5.276,5.2767,5.2774,5.2745,5.2753,5.2759,0,0,0,0,0,0,5.1242,5.1416,5.1442,5.1593,5.1703,5.1856,5.1926,5.1961,5.2077,5.2075,5.2171,5.2206,5.2348,5.2422,5.2369,5.2605,5.2587,5.2602,5.2552,5.2561,5.2566,5.2547,5.2395,0,0,0,0,0,5.1247,5.1359,5.1505,5.1625,5.1679,5.1792,5.1863,5.1917,5.2034,5.2081,5.2182,5.2295,5.2414,5.2491,5.2608,5.2757,5.2794,5.2818,5.2823,5.2827,5.284,5.2928,5.2941,5.28,5.28,5.28,0,0,5.1261,5.137,5.1434,5.1617,5.1709,5.1823,5.1831,5.1951,5.2037,5.2099,5.2247,5.2323,5.2456,5.2606,5.2677,5.2672,5.2887,5.2836,5.2838,5.2849,5.2936,5.2949,5.2961,5.2804,5.2804,5.2803,0,0,5.1344,5.1436,5.1548,5.1639,5.1778,5.1853,5.1879,5.2027,5.2082,5.223,5.228,5.2383,5.2586,5.268,5.2753,5.2872,5.2905,5.2907,5.2938,5.3022,5.3033,5.3044,5.3089,5.3104,5.2918,5.2918,5.2918,0,5.1343,5.1517,5.1601,5.1719,5.1799,5.186,5.1975,5.2059,5.2228,5.2282,5.2274,5.2531,5.2624,5.2799,5.2828,5.2884,5.2919,5.2891,5.3025,5.3036,5.3047,5.3092,5.3108,5.2918,5.2918,5.2918,5.2918,0,5.1511,5.163,5.1704,5.1867,5.1955,5.207,5.2172,5.225,5.2295,5.2371,5.2523,5.2637,5.2779,5.2824,5.2869,5.3005,5.2998,5.3006,5.2991,5.3059,5.3103,5.312,5.2917,5.2917,5.2918,5.2918,0,0,5.157,5.1778,5.1804,5.188,5.2037,5.2131,5.2249,5.2389,5.2456,5.257,5.2674,5.2844,5.2853,5.2936,5.2992,5.3065,5.3156,5.3065,5.3069,5.3081,5.3317,5.3313,5.3331,5.3177,5.318,5.3183,5.3307,0,5.1676,5.1891,5.197,5.2146,5.2259,5.2319,5.2422,5.253,5.2604,5.271,5.2791,5.2912,5.2913,5.2964,5.3039,5.3129,5.3205,5.312,5.3276,5.3281,5.3245,5.3353,5.3349,5.346,5.3324,5.3327,5.3329,0,5.1829,5.1946,5.2134,5.2279,5.2329,5.2421,5.2557,5.2657,5.2781,5.2829,5.2923,5.2974,5.3101,5.3075,5.3253,5.3194,5.3261,5.3315,5.3321,5.3342,5.3312,5.3381,5.3498,5.3515,5.3356,5.3354,5.3352,0,5.1858,5.2062,5.2202,5.2264,5.2436,5.2499,5.2573,5.2695,5.2774,5.2892,5.2945,5.3075,5.3148,5.3248,5.3333,5.3306,5.3504,5.3485,5.355,5.3548,5.3593,5.3589,5.3726,5.3629,5.3629,5.3629,5.3628,0,5.197,5.2084,5.2218,5.2304,5.2434,5.2522,5.2648,5.2726,5.2833,5.2937,5.2994,5.309,5.3195,5.3304,5.3371,5.351,5.3541,5.3585,5.3603,5.3583,5.3578,5.3632,5.3628,5.3633,5.3632,5.3631,5.3631,0,5.2026,5.212,5.2277,5.2426,5.2466,5.2556,5.2684,5.277,5.2846,5.2976,5.3011,5.313,5.3262,5.3356,5.3525,5.3571,5.3721,5.3736,5.368,5.369,5.3751,5.3746,5.393,5.3961,5.3839,5.384,5.3841,0,5.2094,5.2183,5.2342,5.2415,5.249,5.2607,5.2689,5.2779,5.2862,5.301,5.3079,5.3214,5.3329,5.3536,5.3638,5.3769,5.379,5.3845,5.381,5.3788,5.3795,5.3791,5.3802,5.3852,5.3852,5.3853,5.3854,0,5.2205,5.2247,5.2363,5.2496,5.2592,5.27,5.2809,5.2866,5.2976,5.3066,5.3202,5.329,5.3464,5.3599,5.3739,5.3816,5.3855,5.3863,5.3887,5.3869,5.3835,5.3858,5.3699,5.386,5.3859,5.3859,5.3858,5.3858,5.2272,5.2355,5.248,5.2608,5.2699,5.28,5.289,5.2977,5.3092,5.3241,5.3286,5.3428,5.355,5.3743,5.3821,5.3934,5.3932,5.3963,5.3972,5.398,5.3981,5.3813,5.3959,5.3959,5.3959,5.3959,5.3959,0,5.239,5.2473,5.2589,5.2741,5.2841,5.2867,5.2989,5.3072,5.3196,5.3307,5.3418,5.3575,5.3706,5.3818,5.3954,5.4023,5.4044,5.4056,5.4054,5.4072,5.3974,5.3943,5.4037,5.4037,5.4037,5.4037,5.4037,5.4037,5.2463,5.2606,5.2663,5.2852,5.2934,5.3074,5.3142,5.3236,5.3326,5.3498,5.3608,5.368,5.3792,5.3937,5.4059,5.4088,5.4138,5.4146,5.418,5.4087,5.4078,5.407,5.4041,5.4155,5.4155,5.427,5.4271,5.4271]}]]